Location: Street
(51.1247°N, 2.7429°W)
Time: 12:20:35
(UTC+01:00)

STRAND 1 - Pass Details

Date: 19 April 2024
Orbit: 766 x 777 km, 98.4° (Epoch: 25 May)

Event Time Altitude Azimuth Distance (km) Brightness Sun altitude
Rises 21:07:08 0° 7° (N) 3,249 ? -8.3°
Reaches altitude 10° 21:09:45 10° 355° (N) 2,319 ? -8.7°
Maximum altitude 21:13:56 27° 300° (WNW) 1,465 ? -9.2°
Drops below altitude 10° 21:18:08 10° 245° (WSW) 2,312 ? -9.8°
Sets 21:20:44 0° 233° (SW) 3,236 ? -10.1°
